This is the latest recevied weather packets stored in our database for station/object SP9KB-13. If no packets are shown the sender has not sent any weather packets the latest 10 day(s).
| Time | Temp. | Humidity | Pressure | Rain* | Wind** | Luminosity | Snow |
|---|---|---|---|---|---|---|---|
| 1777980382 | 23.89° C | 33% | 992.9 hPa | 0 mm | - | - | - |
| 1777980081 | 24.44° C | 35% | 992.8 hPa | 0 mm | - | - | - |
| 1777979780 | 23.89° C | 33% | 993 hPa | 0 mm | - | - | - |
| 1777979480 | 24.44° C | 36% | 993.2 hPa | 0 mm | - | - | - |
| 1777978879 | 23.33° C | 34% | 993.5 hPa | 0 mm | - | - | - |
| 1777977376 | 23.33° C | 35% | 993.5 hPa | 0 mm | - | - | - |
| 1777976775 | 22.78° C | 35% | 993.5 hPa | 0 mm | - | - | - |
| 1777976474 | 22.78° C | 34% | 993.8 hPa | 0 mm | - | - | - |
| 1777976173 | 22.22° C | 36% | 993.7 hPa | 0 mm | - | - | - |
| 1777975873 | 22.78° C | 35% | 994.1 hPa | 0 mm | - | - | - |
| 1777975572 | 22.78° C | 34% | 994.1 hPa | 0 mm | - | - | - |
| 1777975272 | 22.78° C | 35% | 994.1 hPa | 0 mm | - | - | - |
| 1777974971 | 22.78° C | 34% | 994 hPa | 0 mm | - | - | - |
| 1777974671 | 22.22° C | 36% | 993.9 hPa | 0 mm | - | - | - |
| 1777974370 | 22.22° C | 35% | 994.3 hPa | 0 mm | - | - | - |
| 1777974070 | 21.67° C | 35% | 994.2 hPa | 0 mm | - | - | - |
| 1777973769 | 21.67° C | 36% | 994.2 hPa | 0 mm | - | - | - |
| 1777973468 | 21.67° C | 38% | 994.3 hPa | 0 mm | - | - | - |
| 1777973168 | 21.67° C | 37% | 994.2 hPa | 0 mm | - | - | - |
| 1777972867 | 21.11° C | 39% | 994.2 hPa | 0 mm | - | - | - |
| 1777972567 | 21.11° C | 38% | 994.3 hPa | 0 mm | - | - | - |
| 1777972266 | 21.67° C | 38% | 994.3 hPa | 0 mm | - | - | - |
| 1777971965 | 21.67° C | 38% | 994.3 hPa | 0 mm | - | - | - |
| 1777971665 | 21.67° C | 40% | 994.5 hPa | 0 mm | - | - | - |
| 1777971364 | 21.11° C | 39% | 994.5 hPa | 0 mm | - | - | - |
* Rain latest hour (hover to see other rain measurements)
** Current wind speed in m/s (hover to see current wind gust speed)